Regional Weather Roundup
Issued by NWS

Home | Current Version | Previous Version | Text Only | Print | Product List | Glossary Off
Versions: 1 2 3 4 5 6 7 8 9 10 11 12 13 14 15 16 17 18 19 20 21 22 23 24 25 26 27 28 29 30 31 32 33 34 35 36 37 38 39 40 41 42 43 44 45 46 47 48 49 50

000
ASUS45 KTFX 010104
RWRMT
MONTANA HOURLY WEATHER ROUNDUP
NATIONAL WEATHER SERVICE GREAT FALLS MT
704 PM MDT THU JUL 31 2014

NOTE: "FAIR" INDICATES FEW OR NO CLOUDS BELOW 12000 FEET WITH NO
SIGNIFICANT WEATHER AND/OR OBSTRUCTIONS TO VISIBILITY.

* THESE STATIONS ARE NOT UNDER NWS QUALITY CONTROL. THEY DO NOT
   REPORT WEATHER SUCH AS PRECIPITATION OR FOG.

MTZ001>007-043-010200-
WEST OF THE DIVIDE
CITY           SKY/WX    TMP DP  RH WIND       PRES   REMARKS
KALISPELL      PTCLDY    91  45  20 S6        30.02S
MISSOULA       PTCLDY    91  37  15 N7        30.04S
BUTTE          PTCLDY    79  36  21 SE6       30.22S
MULLAN PASS    PTCLDY    75  36  24 VRB6      30.27F
* ESSEX        N/A      N/A N/A N/A N/A        N/A
* LINCOLN      N/A       71  56  59 E6G13      N/A
* LOOKOUT PASS N/A       83  38  20 N6         N/A
* POLSON       N/A       89  38  17 E2G7       N/A
* RONAN APT    CLEAR     91  41  17 N/A        N/A
* SEELEY LAKE  N/A       90  39  17 NW5G14     N/A
* THOMP F APT  PTCLDY    71  47  43 NE4        N/A
$$

MTZ008-052>055-010200-
SOUTHWEST MONTANA
CITY           SKY/WX    TMP DP  RH WIND       PRES   REMARKS
BOZEMAN        CLOUDY    82  41  23 NW9       30.14S
DILLON         MOCLDY    81  43  26 NE7       30.19F
W YELLOWSTONE  CLOUDY    68  43  40 SW8       30.31S
* THREE FORKS  CLOUDY    90  57  33 N/A        N/A
* BOULDER HILL N/A       76  42  30 N5         N/A
* MONIDA PASS  N/A       68  42  39 VRB22G27    N/A
* RAYNOLDS PAS N/A       67  46  47 SE11       N/A
* WHITEHALL    N/A       88  41  19 W6G12      N/A
* WISE RIVER   N/A       79  38  23 SE10       N/A
$$

MTZ009>010-012-014-046-048-049-054-010200-
EAST SLOPES AND CENTRAL MONTANA
CITY           SKY/WX    TMP DP  RH WIND       PRES   REMARKS
CUT BANK       PTCLDY    88  41  19 NW6       30.11F
GREAT FALLS    MOCLDY    88  36  16 S7        30.08F
HELENA         MOCLDY    86  39  19 N17       30.11S
MALMSTROM AFB  CLOUDY    88  34  15 SW3       30.09F
* DEARBORN     N/A       83  41  23 NW1        N/A
* EAST GLACIER N/A       79  40  25 E3         N/A
* MONARCH      N/A       72  42  34 S14G29     N/A
* PENDROY      N/A       84  47  28 N6         N/A
* ROGERS PASS  N/A       72  50  46 W1         N/A
* SAINT MARY   N/A       74  54  50 E3G9       N/A
* SWEET GRASS  N/A       83  47  28 N9         N/A
$$

MTZ011-013-016-021-035-040-045-047-050-051-010200-
NORTH CENTRAL MONTANA
CITY           SKY/WX    TMP DP  RH WIND       PRES   REMARKS
HAVRE          MOCLDY    86  46  25 E16       30.00S
LEWISTOWN      PTCLDY    86  39  19 N7        30.10S
* CHESTER      N/A       88  42  20 N5G10      N/A
* DENTON       N/A       88  44  22 NW12G20    N/A
* GEYSER       N/A       80  43  27 NW8G14     N/A
* JUDITH GAP   N/A       83  45  26 N/A        N/A
* LOMA         N/A       88  41  19 W16G22     N/A
$$

MTZ017>020-022>027-061-062-010200-
NORTHEAST MONTANA
CITY           SKY/WX    TMP DP  RH WIND       PRES   REMARKS
GLASGOW        CLOUDY    88  43  21 S8        29.96R
GLENDIVE       MOCLDY    82  45  27 W14G45    30.01R
JORDAN         CLOUDY    90  37  15 W13       29.99S
SIDNEY         PTCLDY    90  54  29 NE8       29.97S
WOLF POINT     CLOUDY    93  34  12 W10       29.94S
* BEAVER HILL  N/A       90  43  19 W6         N/A
* CIRCLE       N/A       93  45  19 NW1G10     N/A
* LINDSAY DVD  N/A       88  45  22 W3         N/A
* NAVAJO       N/A       85  57  39 E12        N/A
$$

MTZ028>042-056>058-010200-
SOUTHCENTRAL AND SOUTHEAST MONTANA
CITY           SKY/WX    TMP DP  RH WIND       PRES   REMARKS
BAKER          PTCLDY    91  37  15 N5        30.04F
BILLINGS       CLOUDY    88  39  18 NW6G24    30.05F
LIVINGSTON     MOCLDY    82  36  19 SW9       30.14S
MILES CITY     PTCLDY    93  30  10 S5        29.98S
* LAUREL APT   MOCLDY    90  41  18 N/A        N/A
* ROUNDUP APT  MOCLDY    90  39  17 N9         N/A
* ALZADA       N/A       79  43  28 NE15       N/A
* HYSHAM       N/A       88  44  22 NE1        N/A
* LAME DEER    N/A       85  38  19 N4         N/A
* REED POINT   N/A       88  44  22 E6         N/A
* ROSCOE HILL  N/A       81  38  21 N8G16      N/A
$$

REGIONAL REPORTS...DAKOTAS
CITY           SKY/WX    TMP DP  RH WIND       PRES   REMARKS
WILLISTON      CLEAR     84  57  40 E13       30.00R HI  83
DICKINSON      CLEAR     81  59  47 SE8       30.02F HI  81
CROSBY         CLEAR     77  63  62 E9        30.02F
TIOGA          CLEAR     77  57  50 E10       30.06S
WATFORD CITY   CLEAR     82  57  43 E14       29.99R HI  82
BISMARCK       CLEAR     82  48  31 S7        30.03S
GRAND FORKS    PTCLDY    79  66  65 N5        29.98S
FARGO          CLEAR     79  61  54 E6        29.99S
BUFFALO SD     PTCLDY    81  48  32 S9        30.01F
RAPID CITY     FAIR      81  54  39 W7        30.10S
$$

REGIONAL REPORTS...WYOMING/IDAHO/WASHINGTON
CITY           SKY/WX    TMP DP  RH WIND       PRES   REMARKS
GILLETTE       CLEAR     84  34  17 SE6       30.12F
SHERIDAN       MOCLDY    81  41  24 SW18G24   30.09F
CODY           MOCLDY    77  41  28 NW13      30.18S
YELLOWSTONE LA CLOUDY    59  46  62 CALM      30.43F
SALMON         CLOUDY    88  39  18 NE8       30.03S
MULLAN PASS    PTCLDY    75  36  24 VRB6      30.27S
SAND POINT     PTCLDY    91  45  20 CALM      29.97F
SPOKANE        CLOUDY    97  25   7 W9        29.99F

$$




USA.gov is the U.S. government's official web portal to all federal, state and local government web resources and services.